Find Starlink 37934

NORAD ID: 69567 Int'l Des: 2026-135 Owner: SPXS Country: US Constellation: starlink operational
LEOCIRCULARRETROGRADE

現在のビュー

3D地球を読み込み中...

About Starlink 37934

Starlink 37934 (NORAD 69567) is a starlink constellation satellite (v2 mini) launched Jun 15, 2026 by SPXS of US. It operates in LEO, CIRCULAR, RETROGRADE orbit with a mass of 575.00 kg.

次回通過

Passes for default location (London). Set your location on the main map for personalized predictions.

高度履歴

Loading altitude history...

軌道要素

1 69567U 26135X 26235.50295432 .00015827 00000-0 49147-3 0 9999
2 69567 97.2845 263.6531 0001261 99.8811 260.2574 15.33449663 10722
Epoch: Aug 23, 2026 • Age: 13 hours

現在のステータス

高度 468.3 km
遠地点 / 近地点 N/A
速度 7.63 km/s
衛星直下点 3.15°N, 77.75°W
打ち上げ日 Jun 15, 2026
運用期間 0.1 years
タイプ internet

技術仕様

分類 Payload
質量 575.00 kg
乾燥質量 530.00 kg
総質量 575.00 kg
長さ 0.30 m
直径 4.10 m
スパン 29.00 m
形状 Box + pan
製造者 SPXS
バスタイプ Starlink V2MO
フェーズステータス In Orbit
所有者/国 SPXS/US

Most Searched